{"data":{"norad_id":60144,"intl_designator":"2024-120K","name":"STARLINK-32033","alt_names":[],"object_type":"PAYLOAD","status":"ACTIVE","operator":null,"country":"US","launch_date":"2024-06-27","launch_site_code":"AFETR","launch_vehicle":null,"mission":null,"orbit_class":"UNKNOWN","rcs_meters":null,"size_class":null,"mass_kg":null,"dimensions":null,"purposes":["comms"],"wikipedia_slug":null,"has_3d_model":false,"image_url":null,"decayed_at":null,"tle_current":{"epoch":"2026-05-24T21:08:00.612960Z","epoch_age_seconds":88542,"freshness":"FRESH","line1":"1 60144U 24120K   26144.88056265  .00000472  00000+0  28080-4 0  9995","line2":"2 60144  53.1608 325.8674 0001138  90.5241 269.5890 15.30194228108046","mean_motion":15.30194228,"eccentricity":0.0001138,"inclination_deg":53.1608,"raan_deg":325.8674,"arg_perigee_deg":90.5241,"mean_anomaly_deg":269.589,"bstar":2.808e-5,"rev_number":10804,"period_min":94.105700678411,"perigee_km":474.45239019833,"apogee_km":476.01221705184,"semimajor_km":6853.3693036251,"source":"CELESTRAK","updated_at":"2026-05-25T13:38:19.189689Z"}}}